Weather History for KSLN - June, 2013

Change the Weather History Date:

Sunday, June 23, 2013

  Actual Average Record
Temperature  
Mean Temperature 85 °F 78 °F  
Max Temperature 96 °F 90 °F 107 °F (1897)
Min Temperature 74 °F 66 °F 45 °F (1926)
Degree Days  
Heating Degree Days 0 0  
Month to date heating degree days 7 5  
Since 1 June heating degree days 7 5  
Since 1 July heating degree days 4924 4869  
Cooling Degree Days 20 13  
Month to date cooling degree days 260 227  
Year to date cooling degree days 401 355  
Since 1 June cooling degree days 260 227  
Growing Degree Days 35 (Base 50)    
Moisture  
Dew Point 65 °F    
Average Humidity 51    
Maximum Humidity 69    
Minimum Humidity 33    
Precipitation  
Precipitation 0.00 in 0.14 in 3.57 in (1993)
Month to date precipitation 2.19 3.21  
Year to date precipitation 15.43 15.20  
Sea Level Pressure  
Sea Level Pressure 29.77 in    
Wind  
Wind Speed 14 mph (SSE)    
Max Wind Speed 26 mph    
Max Gust Speed 36 mph    
Visibility 10 miles    
Events      
T = Trace of Precipitation, MM = Missing Value Source: NWS Daily Summary

Daily Weather History Graph

Daily Weather History Graph

Search for Another Location

Airport or City:

Trip Planner

Search our weather history database for the weather conditions in past years. The results will help you decide how hot, cold, wet, or windy it might be!

Date:

Astronomy

Jun. 23, 2013 Rise Set
Actual Time 6:06 AM CDT 8:59 PM CDT
Civil Twilight 5:34 AM CDT 9:31 PM CDT
Nautical Twilight 4:53 AM CDT 10:11 PM CDT
Astronomical Twilight 4:07 AM CDT 10:58 PM CDT
Moon 9:13 PM CDT (6/23) 6:24 AM CDT (6/23)
Length of Visible Light 15h 57m
Length of Day
14h 53m
Full, 100% of the Moon is Illuminated
Jun 23
Full
Jun 29
Last Quarter
Jul 8
New
Jul 15
First Quarter
Jul 22
Full

Hourly Weather History & Observations

Time (CDT) Temp. Heat Index Dew Point Humidity Pressure Visibility Wind Dir Wind Speed Gust Speed Precip Events Conditions
12:53 AM 82.0 °F 83.8 °F 64.9 °F 56% 29.75 in 10.0 mi South 20.7 mph 32.2 mph N/A   Partly Cloudy
1:53 AM 81.0 °F 83.0 °F 66.0 °F 60% 29.74 in 10.0 mi South 19.6 mph 29.9 mph N/A   Clear
2:53 AM 80.1 °F 82.1 °F 66.0 °F 62% 29.74 in 10.0 mi South 20.7 mph 28.8 mph N/A   Clear
3:53 AM 79.0 °F - 66.0 °F 64% 29.74 in 10.0 mi SSE 21.9 mph - N/A   Clear
4:53 AM 78.1 °F - 66.0 °F 66% 29.74 in 10.0 mi South 19.6 mph 25.3 mph N/A   Clear
5:53 AM 78.1 °F - 66.0 °F 66% 29.74 in 10.0 mi South 16.1 mph 24.2 mph N/A   Clear
6:53 AM 77.0 °F - 66.0 °F 69% 29.81 in 10.0 mi SW 10.4 mph 24.2 mph N/A   Scattered Clouds
7:53 AM 78.1 °F - 66.9 °F 68% 29.80 in 10.0 mi ESE 5.8 mph - N/A   Mostly Cloudy
8:53 AM 78.1 °F - 66.9 °F 68% 29.82 in 10.0 mi East 8.1 mph - N/A   Partly Cloudy
9:53 AM 75.9 °F - 64.9 °F 69% 29.81 in 10.0 mi East 12.7 mph - N/A   Clear
10:53 AM 81.0 °F 83.3 °F 66.9 °F 62% 29.81 in 10.0 mi NE 13.8 mph - N/A   Partly Cloudy
11:53 AM 82.0 °F 85.5 °F 69.1 °F 65% 29.81 in 10.0 mi NE 12.7 mph - N/A   Overcast
12:53 PM 90.0 °F 91.3 °F 64.0 °F 42% 29.79 in 10.0 mi South 9.2 mph - N/A   Overcast
1:53 PM 91.9 °F 93.3 °F 64.0 °F 39% 29.78 in 10.0 mi SSE 11.5 mph - N/A   Clear
2:53 PM 91.9 °F 93.3 °F 64.0 °F 39% 29.77 in 10.0 mi South 12.7 mph 24.2 mph N/A   Partly Cloudy
3:53 PM 91.9 °F 94.5 °F 66.0 °F 42% 29.75 in 10.0 mi South 12.7 mph 23.0 mph N/A   Scattered Clouds
4:53 PM 95.0 °F 97.0 °F 64.0 °F 36% 29.73 in 10.0 mi South 16.1 mph 26.5 mph N/A   Partly Cloudy
5:53 PM 95.0 °F 97.4 °F 64.9 °F 37% 29.73 in 10.0 mi SSW 16.1 mph - N/A   Mostly Cloudy
6:53 PM 93.9 °F 93.6 °F 60.1 °F 32% 29.73 in 10.0 mi South 13.8 mph - N/A   Overcast
7:53 PM 91.9 °F 91.2 °F 59.0 °F 33% 29.75 in 10.0 mi South 11.5 mph - N/A   Mostly Cloudy
8:53 PM 90.0 °F 89.1 °F 59.0 °F 35% 29.76 in 10.0 mi South 15.0 mph - N/A   Partly Cloudy
9:53 PM 86.0 °F 86.3 °F 62.1 °F 44% 29.78 in 10.0 mi South 16.1 mph 23.0 mph N/A   Clear
10:53 PM 84.0 °F 84.9 °F 63.0 °F 49% 29.81 in 10.0 mi SSE 15.0 mph - N/A   Clear
11:53 PM 82.0 °F 83.8 °F 64.9 °F 56% 29.83 in 10.0 mi SSE 16.1 mph - N/A   Clear